Location: Iesi
(43.5167°N, 13.2333°E)
Time: 16:27:30
(UTC+00:00)

SL-4 R/B - Pass Details

Date: 08 August 2020
Orbit: 428 x 665 km, 51.6° (Epoch: 23 September)

Event Time Altitude Azimuth Distance (km) Brightness Sun altitude
Rises 22:23:03 0° 285° (WNW) 2,569 5.8 -29.6°
Reaches altitude 10° 22:25:38 10° 301° (WNW) 1,645 4.9 -29.7°
Enters shadow 22:27:08 18° 320° (NW) 1,223 4.4 -29.8°
